Location: *
(33.6842°N, 117.7925°W)
Time: 21:56:54
(UTC+00:00)

Cosmos 676 Rocket - Pass Details

Date: 21 October 2019
Orbit: 755 x 783 km, 74.0° (Epoch: 20 November)

Event Time Altitude Azimuth Distance (km) Brightness Sun altitude
Exits shadow 12:09:58 53° 222° (SW) 940 4.1 -23.7°
Maximum altitude 12:11:07 73° 287° (WNW) 808 3.8 -23.5°
Drops below altitude 10° 12:16:22 10° 13° (NNE) 2,312 6.6 -22.4°
Sets 12:18:45 0° 15° (NNE) 3,237 7.5 -21.9°
